RH
9 10 11 12 14 18 21 21 20 20 20 21 22 23 25 23 22 24 27 30 37 39 40 42 50 52 52 59 58 61 51 59 40 55 45 48 55 48 50 40 47 43 42 37 41
9 9 9 10 12 17 21 20 20 21 21 20 21 22 23 25 23 22 24 28 33 39 42 47 47 46 47 55 58 59 68 64 42 39 51 51 55 46 46 44 42 42 39 37 40
11 11 11 12 15 17 19 19 17 18 21 22 19 20 22 24 26 25 22 25 30 37 44 46 50 48 48 52 57 54 57 58 45 44 46 54 45 46 53 43 46 38 37 33 36
17 16 16 18 19 20 19 19 17 17 19 20 20 18 21 23 31 34 25 24 28 35 46 46 47 50 51 59 57 57 55 52 51 41 46 49 52 48 51 56 48 36 34 34 34
18 17 18 18 19 20 20 18 18 17 18 18 18 18 20 24 28 24 31 23 25 31 43 46 47 48 52 62 60 54 56 52 45 42 41 46 47 53 44 47 43 35 33 35 33
16 18 18 16 16 17 18 19 18 18 17 17 17 17 19 22 25 21 29 27 23 28 38 44 51 49 52 55 57 60 55 54 45 43 37 38 43 43 44 41 40 35 34 32 30
16 15 15 17 17 16 16 16 17 17 17 16 16 17 20 22 22 27 29 33 25 25 36 43 51 53 54 51 51 49 51 51 42 41 39 36 41 39 43 32 39 35 35 34 33
21 17 15 14 14 16 16 15 16 16 17 16 16 18 21 22 21 22 30 35 28 25 36 47 48 47 54 56 48 45 52 54 43 40 39 31 50 38 29 27 34 31 33 34 32
25 23 21 16 14 13 15 16 15 15 15 16 16 19 23 21 20 23 26 35 32 29 34 38 41 48 55 51 49 47 50 49 46 38 42 42 54 35 24 29 30 30 30 31 31
24 24 23 22 19 14 13 12 16 15 15 17 20 22 23 22 21 21 24 36 38 33 34 36 42 47 48 56 57 54 55 69 61 39 34 37 50 31 27 31 28 29 27 29 29
24 25 24 23 22 20 14 12 13 15 18 16 18 18 19 21 20 21 22 32 34 38 38 40 42 40 48 52 59 53 64 80 78 50 39 40 42 31 30 30 25 24 23 26 27
21 21 23 23 22 23 20 15 15 15 12 14 15 18 18 20 19 21 23 26 31 32 35 46 41 42 49 71 65 57 78 74 63 47 36 45 46 39 34 31 28 20 22 23 25
22 21 21 20 21 24 25 22 15 14 12 8 8 13 16 17 19 20 22 23 30 34 40 38 44 45 57 54 61 54 80 85 67 45 35 48 38 43 37 33 29 24 20 25 23
21 20 20 19 21 25 26 24 19 14 12 9 8 7 13 16 16 19 23 24 30 33 40 43 39 44 42 58 46 54 69 59 54 50 42 44 38 39 39 35 29 29 23 23 22
19 19 19 18 19 23 27 25 21 18 14 11 11 9 9 14 15 16 21 26 28 37 44 41 39 45 45 50 55 51 60 52 52 56 39 35 33 32 36 36 35 29 27 23 21
19 20 18 19 19 22 26 25 23 22 15 12 11 9 9 13 14 15 19 25 31 40 44 40 38 38 45 53 55 56 55 55 53 52 56 40 30 32 34 33 35 35 33 29 22
18 20 19 21 25 25 26 25 25 23 15 14 14 12 10 12 14 15 17 24 31 39 42 39 42 37 42 56 67 51 64 68 71 64 53 41 42 31 40 35 31 35 37 34 29
19 18 19 23 26 24 26 26 27 23 19 18 16 17 15 14 14 15 18 22 28 33 39 39 38 46 39 53 64 52 59 63 73 71 47 41 31 27 40 37 32 36 41 41 39
22 23 28 25 26 28 28 25 24 26 24 20 17 14 16 17 18 15 21 21 25 29 36 38 37 36 44 49 57 70 73 71 85 81 69 41 31 37 32 43 35 36 39 42 41
24 28 28 28 26 31 30 25 25 28 25 22 19 18 18 21 18 17 17 22 25 29 33 37 39 36 46 41 64 55 71 74 91 90 67 52 39 35 38 37 33 36 37 41 39
28 31 31 29 26 30 28 27 26 26 26 25 20 23 21 24 24 20 18 20 24 28 31 35 40 36 53 42 46 54 64 64 76 90 87 66 63 31 37 35 36 35 35 38 32
29 38 30 29 28 28 28 31 30 26 26 27 23 21 21 21 19 22 24 20 27 28 31 33 39 45 52 53 40 46 49 53 51 69 86 81 68 50 39 43 42 40 46 40 35
29 32 30 31 35 35 30 29 30 30 27 28 24 21 20 19 22 23 23 24 26 31 32 34 34 45 58 66 45 41 41 47 46 60 69 81 67 58 53 48 47 51 42 39 37
32 35 43 35 31 33 35 36 35 35 32 28 27 23 21 20 21 26 27 26 29 33 35 38 33 32 56 55 43 44 48 51 43 55 53 55 63 72 68 48 47 48 46 42 43
35 40 35 36 43 40 36 36 38 42 42 39 35 28 25 23 23 22 25 26 26 28 33 36 36 37 34 42 53 47 45 38 45 41 43 46 61 66 66 56 48 47 50 47 45
32 33 33 30 32 31 32 34 39 42 47 45 46 41 33 27 28 31 29 26 28 25 31 34 38 38 39 40 61 62 53 42 38 39 38 38 56 58 61 59 50 47 48 48 46
37 35 35 28 33 36 35 36 39 44 45 46 53 50 43 38 36 31 35 35 36 34 30 33 36 39 39 40 41 58 42 44 45 41 44 45 36 52 56 60 68 46 43 45 49